Location: ??
(35.3149°N, 139.6204°E)
Time: 10:35:05
(UTC+00:00)

CENTAUR R/B - Pass Details

Date: 03 August 2024
Orbit: 663 x 1521 km, 63.4° (Epoch: 09 September)

Event Time Altitude Azimuth Distance (km) Brightness Sun altitude
Rises 13:21:31 0° 320° (NW) 4,398 6.9 -33.6°
Reaches altitude 10° 13:24:29 10° 314° (NW) 3,509 6.1 -33.8°
Maximum altitude 13:32:35 41° 248° (WSW) 2,054 4.0 -34.5°
Enters shadow 13:33:20 41° 238° (WSW) 2,077 4.0 -34.5°
